| time (UTC) | temp F | wind direction | speed knots | gust knots | rain 1hr in | rain 24hr in | rain mn in | humidity % | barometer mb |
| 20260506143252 | 71 | 236 | 7.0 | 8.7 | 0.00 | 0.00 | 0.00 | 62 | 988.2 |
| 20260506143052 | 71 | 243 | 6.1 | 7.8 | 0.00 | 0.00 | 0.00 | 62 | 988.2 |
| 20260506142852 | 71 | 242 | 6.1 | 7.8 | 0.00 | 0.00 | 0.00 | 63 | 988.2 |
| 20260506142652 | 71 | 237 | 6.1 | 7.8 | 0.00 | 0.00 | 0.00 | 62 | 988.3 |
| 20260506142452 | 71 | 236 | 7.0 | 8.7 | 0.00 | 0.00 | 0.00 | 62 | 988.3 |
| 20260506142252 | 71 | 242 | 6.1 | 8.7 | 0.00 | 0.00 | 0.00 | 63 | 988.2 |
| 20260506142052 | 71 | 231 | 5.2 | 7.0 | 0.00 | 0.00 | 0.00 | 62 | 988.3 |
| 20260506141852 | 71 | 225 | 7.0 | 9.6 | 0.00 | 0.00 | 0.00 | 62 | 988.3 |
| 20260506141652 | 71 | 218 | 10.4 | 13.9 | 0.00 | 0.00 | 0.00 | 62 | 988.3 |
| 20260506141452 | 72 | 219 | 7.8 | 13.9 | 0.00 | 0.00 | 0.00 | 62 | 988.3 |
| 20260506141252 | 72 | 225 | 7.0 | 10.4 | 0.00 | 0.00 | 0.00 | 62 | 988.3 |
| 20260506141051 | 72 | 221 | 7.0 | 10.4 | 0.00 | 0.00 | 0.00 | 62 | 988.1 |
| 20260506140851 | 72 | 226 | 6.1 | 9.6 | 0.00 | 0.00 | 0.00 | 62 | 988.0 |
| 20260506140651 | 72 | 224 | 3.5 | 4.3 | 0.00 | 0.00 | 0.00 | 62 | 987.9 |
| 20260506140451 | 72 | 223 | 3.5 | 5.2 | 0.00 | 0.00 | 0.00 | 62 | 987.9 |
| 20260506140251 | 72 | 225 | 3.5 | 5.2 | 0.00 | 0.00 | 0.00 | 63 | 987.9 |
| 20260506140051 | 72 | 195 | 4.3 | 5.2 | 0.00 | 0.00 | 0.00 | 62 | 987.9 |
| 20260506135850 | 72 | 204 | 5.2 | 7.0 | 0.00 | 0.00 | 0.00 | 62 | 988.0 |
| 20260506135642 | 72 | 215 | 6.1 | 7.0 | 0.00 | 0.00 | 0.00 | 62 | 988.0 |
| 20260506135442 | 72 | 218 | 5.2 | 7.0 | 0.00 | 0.00 | 0.00 | 62 | 988.0 |
| 20260506135242 | 72 | 214 | 5.2 | 7.8 | 0.00 | 0.00 | 0.00 | 63 | 988.3 |
| 20260506135042 | 72 | 211 | 7.0 | 8.7 | 0.00 | 0.00 | 0.00 | 63 | 988.6 |
| 20260506134842 | 72 | 221 | 8.7 | 13.9 | 0.00 | 0.00 | 0.00 | 63 | 988.6 |
| 20260506134642 | 72 | 246 | 7.0 | 7.8 | 0.00 | 0.00 | 0.00 | 63 | 988.6 |
| 20260506134442 | 72 | 246 | 6.1 | 7.8 | 0.00 | 0.00 | 0.00 | 63 | 988.4 |
| 20260506134242 | 72 | 231 | 7.0 | 8.7 | 0.00 | 0.00 | 0.00 | 63 | 988.2 |
| 20260506134041 | 72 | 176 | 6.1 | 8.7 | 0.00 | 0.00 | 0.00 | 63 | 987.9 |
| 20260506133841 | 72 | 156 | 4.3 | 7.0 | 0.00 | 0.00 | 0.00 | 63 | 987.9 |
| 20260506133641 | 72 | 201 | 4.3 | 8.7 | 0.00 | 0.00 | 0.00 | 63 | 987.8 |
| 20260506133441 | 72 | 267 | 4.3 | 8.7 | 0.00 | 0.00 | 0.00 | 63 | 987.7 |
| 20260506133241 | 72 | 274 | 3.5 | 5.2 | 0.00 | 0.00 | 0.00 | 64 | 987.6 |
| 20260506133041 | 72 | 267 | 2.6 | 5.2 | 0.00 | 0.00 | 0.00 | 64 | 987.6 |
| 20260506132841 | 72 | 211 | 0.9 | 2.6 | 0.00 | 0.00 | 0.00 | 64 | 987.7 |
| 20260506132641 | 72 | 226 | 1.7 | 2.6 | 0.00 | 0.00 | 0.00 | 64 | 987.8 |
| 20260506132441 | 72 | 240 | 2.6 | 4.3 | 0.00 | 0.00 | 0.00 | 64 | 987.9 |
| 20260506132241 | 72 | 244 | 3.5 | 5.2 | 0.00 | 0.00 | 0.00 | 64 | 987.7 |
| 20260506132041 | 72 | 253 | 3.5 | 5.2 | 0.00 | 0.00 | 0.00 | 64 | 987.5 |
| 20260506131841 | 72 | 260 | 2.6 | 4.3 | 0.00 | 0.00 | 0.00 | 64 | 987.4 |
| 20260506131641 | 72 | 261 | 1.7 | 4.3 | 0.00 | 0.00 | 0.00 | 64 | 987.3 |
| 20260506131441 | 72 | 272 | 0.9 | 0.9 | 0.00 | 0.00 | 0.00 | 65 | 987.3 |
| 20260506131241 | 71 | 273 | 1.7 | 4.3 | 0.00 | 0.00 | 0.00 | 65 | 987.4 |
| 20260506131041 | 71 | 275 | 3.5 | 5.2 | 0.00 | 0.00 | 0.00 | 65 | 987.4 |
| 20260506130841 | 71 | 277 | 3.5 | 6.1 | 0.00 | 0.00 | 0.00 | 65 | 987.4 |
| 20260506130641 | 71 | 249 | 3.5 | 5.2 | 0.00 | 0.00 | 0.00 | 65 | 987.5 |
| 20260506130441 | 71 | 317 | 4.3 | 6.1 | 0.00 | 0.00 | 0.00 | 65 | 987.6 |
| 20260506130240 | 71 | 312 | 5.2 | 7.0 | 0.00 | 0.00 | 0.00 | 65 | 987.7 |
| 20260506130041 | 71 | 290 | 5.2 | 6.1 | 0.00 | 0.00 | 0.00 | 65 | 987.8 |
| 20260506125840 | 71 | 283 | 5.2 | 7.0 | 0.00 | 0.00 | 0.00 | 65 | 987.7 |
| 20260506125641 | 71 | 291 | 5.2 | 7.0 | 0.00 | 0.00 | 0.00 | 65 | 987.7 |
| 20260506125441 | 71 | 279 | 4.3 | 7.0 | 0.00 | 0.00 | 0.00 | 65 | 987.7 |
| 20260506125240 | 70 | 260 | 2.6 | 4.3 | 0.00 | 0.00 | 0.00 | 65 | 987.8 |
| 20260506125041 | 71 | 249 | 2.6 | 3.5 | 0.00 | 0.00 | 0.00 | 65 | 987.9 |
| 20260506124840 | 71 | 218 | 1.7 | 3.5 | 0.00 | 0.00 | 0.00 | 65 | 988.0 |
| 20260506124641 | 71 | 209 | 2.6 | 4.3 | 0.00 | 0.00 | 0.00 | 65 | 987.9 |
| 20260506124440 | 71 | 252 | 1.7 | 2.6 | 0.00 | 0.00 | 0.00 | 65 | 987.9 |
| 20260506124241 | 71 | 62 | 0.9 | 0.9 | 0.00 | 0.00 | 0.00 | 65 | 988.0 |
| 20260506124040 | 71 | 65 | 0.9 | 0.9 | 0.00 | 0.00 | 0.00 | 65 | 987.9 |
| 20260506123840 | 71 | 63 | 0.9 | 0.9 | 0.00 | 0.00 | 0.00 | 65 | 987.8 |
| 20260506123640 | 70 | 62 | 0.9 | 1.7 | 0.00 | 0.00 | 0.00 | 66 | 987.8 |
| 20260506123440 | 70 | 62 | 1.7 | 3.5 | 0.00 | 0.00 | 0.00 | 66 | 987.8 |
| 20260506123240 | 70 | 38 | 1.7 | 3.5 | 0.00 | 0.00 | 0.00 | 66 | 987.8 |
| 20260506123040 | 70 | 30 | 1.7 | 2.6 | 0.00 | 0.00 | 0.00 | 66 | 988.0 |
| 20260506122840 | 70 | 6 | 1.7 | 4.3 | 0.00 | 0.00 | 0.00 | 66 | 988.2 |
| 20260506122640 | 70 | 349 | 2.6 | 4.3 | 0.00 | 0.00 | 0.00 | 66 | 988.2 |
| 20260506122440 | 70 | 20 | 1.7 | 2.6 | 0.00 | 0.00 | 0.00 | 66 | 988.2 |
| 20260506122240 | 70 | 34 | 1.7 | 1.7 | 0.00 | 0.00 | 0.00 | 66 | 988.2 |
| 20260506122040 | 70 | 72 | 1.7 | 4.3 | 0.00 | 0.00 | 0.00 | 66 | 988.1 |
| 20260506121840 | 70 | 88 | 3.5 | 5.2 | 0.00 | 0.00 | 0.00 | 66 | 987.9 |
| 20260506121640 | 70 | 63 | 2.6 | 4.3 | 0.00 | 0.00 | 0.00 | 66 | 987.6 |
| 20260506121440 | 70 | 8 | 1.7 | 3.5 | 0.00 | 0.00 | 0.00 | 66 | 987.6 |
| 20260506121240 | 70 | 9 | 1.7 | 2.6 | 0.00 | 0.00 | 0.00 | 66 | 987.6 |
| 20260506121040 | 70 | 33 | 1.7 | 3.5 | 0.00 | 0.00 | 0.00 | 66 | 987.7 |
| 20260506120839 | 70 | 66 | 1.7 | 3.5 | 0.00 | 0.00 | 0.00 | 66 | 987.8 |
| 20260506120639 | 70 | 54 | 2.6 | 3.5 | 0.00 | 0.00 | 0.00 | 67 | 987.8 |
| 20260506120439 | 70 | 85 | 3.5 | 5.2 | 0.00 | 0.00 | 0.00 | 67 | 987.7 |
| 20260506120239 | 70 | 82 | 3.5 | 5.2 | 0.00 | 0.00 | 0.00 | 67 | 987.7 |
| 20260506120039 | 69 | 51 | 2.6 | 4.3 | 0.00 | 0.00 | 0.00 | 67 | 987.8 |
| 20260506115839 | 69 | 55 | 3.5 | 4.3 | 0.00 | 0.00 | 0.00 | 67 | 987.9 |
| 20260506115639 | 69 | 48 | 4.3 | 7.8 | 0.00 | 0.00 | 0.00 | 67 | 987.9 |
| 20260506115439 | 69 | 33 | 4.3 | 6.1 | 0.00 | 0.00 | 0.00 | 67 | 987.9 |
| 20260506115239 | 69 | 33 | 3.5 | 6.1 | 0.00 | 0.00 | 0.00 | 68 | 988.0 |
| 20260506115039 | 69 | 44 | 3.5 | 7.0 | 0.00 | 0.00 | 0.00 | 68 | 988.1 |
| 20260506114839 | 69 | 58 | 5.2 | 8.7 | 0.00 | 0.00 | 0.00 | 68 | 988.1 |
| 20260506114639 | 68 | 65 | 5.2 | 7.0 | 0.00 | 0.00 | 0.00 | 68 | 988.0 |
| 20260506114439 | 68 | 65 | 4.3 | 6.1 | 0.00 | 0.00 | 0.00 | 68 | 987.9 |
| 20260506114239 | 68 | 79 | 4.3 | 7.0 | 0.00 | 0.00 | 0.00 | 68 | 988.0 |
| 20260506114039 | 68 | 81 | 5.2 | 7.0 | 0.00 | 0.00 | 0.00 | 68 | 988.0 |
| 20260506113839 | 68 | 75 | 5.2 | 7.8 | 0.00 | 0.00 | 0.00 | 68 | 987.9 |
| 20260506113638 | 68 | 72 | 4.3 | 7.8 | 0.00 | 0.00 | 0.00 | 69 | 987.9 |
| 20260506113438 | 68 | 68 | 4.3 | 7.0 | 0.00 | 0.00 | 0.00 | 69 | 988.0 |
| 20260506113238 | 68 | 72 | 5.2 | 7.8 | 0.00 | 0.00 | 0.00 | 69 | 988.0 |
| 20260506113038 | 67 | 84 | 5.2 | 7.8 | 0.00 | 0.00 | 0.00 | 69 | 988.0 |
| 20260506112838 | 67 | 90 | 4.3 | 6.1 | 0.00 | 0.00 | 0.00 | 69 | 988.1 |
| 20260506112638 | 66 | 76 | 5.2 | 7.8 | 0.00 | 0.00 | 0.00 | 69 | 988.3 |
| 20260506112438 | 66 | 76 | 5.2 | 7.0 | 0.00 | 0.00 | 0.00 | 69 | 988.4 |
| 20260506112035 | 66 | 76 | 5.2 | 6.1 | 0.00 | 0.00 | 0.00 | 69 | 988.5 |
| 20260506111835 | 66 | 71 | 4.3 | 5.2 | 0.00 | 0.00 | 0.00 | 69 | 988.5 |
| 20260506111635 | 66 | 87 | 4.3 | 6.1 | 0.00 | 0.00 | 0.00 | 69 | 988.6 |
| 20260506111435 | 66 | 95 | 5.2 | 7.8 | 0.00 | 0.00 | 0.00 | 69 | 988.5 |
| 20260506111235 | 66 | 87 | 4.3 | 7.8 | 0.00 | 0.00 | 0.00 | 69 | 988.5 |
| 20260506111034 | 66 | 83 | 4.3 | 6.1 | 0.00 | 0.00 | 0.00 | 69 | 988.3 |
| 20260506110834 | 66 | 83 | 4.3 | 6.1 | 0.00 | 0.00 | 0.00 | 70 | 988.4 |
| 20260506110634 | 66 | 97 | 4.3 | 6.1 | 0.00 | 0.00 | 0.00 | 70 | 988.5 |
| 20260506110434 | 65 | 101 | 5.2 | 7.0 | 0.00 | 0.00 | 0.00 | 69 | 988.6 |
| 20260506110234 | 65 | 82 | 3.5 | 7.0 | 0.00 | 0.00 | 0.00 | 70 | 988.6 |
| 20260506110034 | 65 | 90 | 2.6 | 4.3 | 0.00 | 0.00 | 0.00 | 70 | 988.7 |
| 20260506105834 | 65 | 87 | 3.5 | 5.2 | 0.00 | 0.00 | 0.00 | 69 | 988.8 |
| 20260506105634 | 65 | 77 | 5.2 | 7.0 | 0.00 | 0.00 | 0.00 | 70 | 988.7 |
| 20260506105434 | 65 | 64 | 4.3 | 7.0 | 0.00 | 0.00 | 0.00 | 70 | 988.6 |
| 20260506105234 | 65 | 71 | 4.3 | 6.1 | 0.00 | 0.00 | 0.00 | 70 | 988.7 |
| 20260506105034 | 65 | 79 | 4.3 | 6.1 | 0.00 | 0.00 | 0.00 | 70 | 988.7 |
| 20260506104834 | 65 | 97 | 3.5 | 6.1 | 0.00 | 0.00 | 0.00 | 70 | 988.7 |
| 20260506104634 | 65 | 83 | 3.5 | 5.2 | 0.00 | 0.00 | 0.00 | 70 | 988.7 |
| 20260506104434 | 65 | 66 | 4.3 | 6.1 | 0.00 | 0.00 | 0.00 | 70 | 988.7 |
| 20260506104234 | 65 | 93 | 5.2 | 7.8 | 0.00 | 0.00 | 0.00 | 70 | 988.7 |
| 20260506104033 | 64 | 103 | 4.3 | 7.8 | 0.00 | 0.00 | 0.00 | 70 | 988.8 |
| 20260506103833 | 64 | 98 | 4.3 | 7.0 | 0.00 | 0.00 | 0.00 | 70 | 989.0 |
| 20260506103633 | 64 | 107 | 5.2 | 7.0 | 0.00 | 0.00 | 0.00 | 70 | 989.0 |
| 20260506103433 | 64 | 102 | 5.2 | 7.0 | 0.00 | 0.00 | 0.00 | 70 | 988.8 |
| 20260506103233 | 64 | 90 | 3.5 | 6.1 | 0.00 | 0.00 | 0.00 | 70 | 988.8 |
| 20260506103033 | 64 | 85 | 2.6 | 4.3 | 0.00 | 0.00 | 0.00 | 70 | 988.8 |
| 20260506102833 | 64 | 79 | 3.5 | 5.2 | 0.00 | 0.00 | 0.00 | 70 | 988.8 |
| 20260506102633 | 64 | 90 | 4.3 | 5.2 | 0.00 | 0.00 | 0.00 | 70 | 988.7 |
| 20260506102433 | 64 | 87 | 3.5 | 5.2 | 0.00 | 0.00 | 0.00 | 71 | 988.8 |
| 20260506102233 | 64 | 91 | 3.5 | 5.2 | 0.00 | 0.00 | 0.00 | 71 | 988.9 |
| 20260506102034 | 63 | 104 | 5.2 | 9.6 | 0.00 | 0.00 | 0.00 | 71 | 988.9 |
| 20260506101833 | 63 | 95 | 5.2 | 9.6 | 0.00 | 0.00 | 0.00 | 71 | 988.9 |
| 20260506101633 | 63 | 79 | 4.3 | 6.1 | 0.00 | 0.00 | 0.00 | 71 | 988.9 |
| 20260506101433 | 63 | 88 | 4.3 | 6.1 | 0.00 | 0.00 | 0.00 | 71 | 988.9 |
| 20260506101233 | 63 | 99 | 3.5 | 5.2 | 0.00 | 0.00 | 0.00 | 71 | 988.9 |
| 20260506101033 | 63 | 95 | 4.3 | 6.1 | 0.00 | 0.00 | 0.00 | 71 | 989.0 |
| 20260506100832 | 62 | 89 | 5.2 | 6.1 | 0.00 | 0.00 | 0.00 | 71 | 989.1 |
| 20260506100632 | 62 | 88 | 4.3 | 5.2 | 0.00 | 0.00 | 0.00 | 71 | 989.2 |
| 20260506100432 | 62 | 84 | 3.5 | 4.3 | 0.00 | 0.00 | 0.00 | 71 | 989.3 |
| 20260506100232 | 62 | 87 | 4.3 | 5.2 | 0.00 | 0.00 | 0.00 | 71 | 989.3 |
| 20260506100032 | 62 | 93 | 5.2 | 7.8 | 0.00 | 0.00 | 0.00 | 71 | 989.3 |
| 20260506095832 | 62 | 90 | 4.3 | 7.8 | 0.00 | 0.00 | 0.00 | 71 | 989.3 |
| 20260506095632 | 62 | 72 | 3.5 | 5.2 | 0.00 | 0.00 | 0.00 | 71 | 989.3 |
| 20260506095432 | 62 | 77 | 4.3 | 6.1 | 0.00 | 0.00 | 0.00 | 71 | 989.2 |
| 20260506095232 | 62 | 77 | 4.3 | 6.1 | 0.00 | 0.00 | 0.00 | 71 | 989.1 |
| 20260506095032 | 62 | 94 | 4.3 | 5.2 | 0.00 | 0.00 | 0.00 | 71 | 989.1 |
| 20260506094832 | 62 | 102 | 4.3 | 6.1 | 0.00 | 0.00 | 0.00 | 71 | 989.1 |
| 20260506094632 | 62 | 92 | 5.2 | 6.1 | 0.00 | 0.00 | 0.00 | 71 | 989.1 |
| 20260506094432 | 62 | 91 | 5.2 | 7.0 | 0.00 | 0.00 | 0.00 | 71 | 989.1 |
| 20260506094232 | 63 | 95 | 5.2 | 7.8 | 0.00 | 0.00 | 0.00 | 71 | 989.1 |
| 20260506094032 | 63 | 99 | 7.0 | 8.7 | 0.00 | 0.00 | 0.00 | 71 | 989.0 |
| 20260506093831 | 62 | 100 | 6.1 | 7.8 | 0.00 | 0.00 | 0.00 | 71 | 989.0 |
| 20260506093631 | 62 | 100 | 7.0 | 9.6 | 0.00 | 0.00 | 0.00 | 71 | 989.0 |
| 20260506093431 | 62 | 85 | 6.1 | 8.7 | 0.00 | 0.00 | 0.00 | 71 | 988.9 |
| 20260506093028 | 61 | 82 | 7.0 | 8.7 | 0.00 | 0.00 | 0.00 | 72 | 989.0 |
| 20260506092828 | 61 | 91 | 6.1 | 7.8 | 0.00 | 0.00 | 0.00 | 72 | 989.0 |
| 20260506092628 | 61 | 85 | 6.1 | 7.8 | 0.00 | 0.00 | 0.00 | 72 | 989.1 |
| 20260506092428 | 61 | 81 | 6.1 | 8.7 | 0.00 | 0.00 | 0.00 | 72 | 989.2 |
| 20260506092228 | 61 | 85 | 5.2 | 7.0 | 0.00 | 0.00 | 0.00 | 72 | 989.2 |
| 20260506092028 | 61 | 88 | 5.2 | 7.0 | 0.00 | 0.00 | 0.00 | 72 | 989.3 |
| 20260506091828 | 61 | 92 | 5.2 | 7.0 | 0.00 | 0.00 | 0.00 | 72 | 989.4 |
| 20260506091628 | 61 | 85 | 4.3 | 6.1 | 0.00 | 0.00 | 0.00 | 72 | 989.4 |
| 20260506091428 | 61 | 92 | 5.2 | 7.0 | 0.00 | 0.00 | 0.00 | 72 | 989.5 |
| 20260506091228 | 61 | 97 | 6.1 | 9.6 | 0.00 | 0.00 | 0.00 | 72 | 989.5 |
| 20260506091028 | 61 | 94 | 6.1 | 8.7 | 0.00 | 0.00 | 0.00 | 72 | 989.5 |
| 20260506090828 | 61 | 92 | 5.2 | 7.8 | 0.00 | 0.00 | 0.00 | 72 | 989.4 |
| 20260506090628 | 61 | 106 | 6.1 | 8.7 | 0.00 | 0.00 | 0.00 | 72 | 989.4 |
| 20260506090428 | 61 | 96 | 5.2 | 8.7 | 0.00 | 0.00 | 0.00 | 72 | 989.3 |
| 20260506090227 | 60 | 82 | 4.3 | 6.1 | 0.00 | 0.00 | 0.00 | 72 | 989.3 |
| 20260506090027 | 60 | 86 | 6.1 | 7.0 | 0.00 | 0.00 | 0.00 | 72 | 989.4 |
| 20260506085827 | 60 | 106 | 6.1 | 8.7 | 0.00 | 0.00 | 0.00 | 72 | 989.3 |
| 20260506085627 | 60 | 100 | 6.1 | 8.7 | 0.00 | 0.00 | 0.00 | 72 | 989.3 |
| 20260506085427 | 60 | 104 | 4.3 | 7.0 | 0.00 | 0.00 | 0.00 | 72 | 989.4 |
| 20260506085227 | 60 | 111 | 5.2 | 7.0 | 0.00 | 0.00 | 0.00 | 72 | 989.5 |
| 20260506085027 | 60 | 98 | 5.2 | 7.8 | 0.00 | 0.00 | 0.00 | 72 | 989.5 |
| 20260506084837 | 60 | 100 | 5.2 | 7.8 | 0.00 | 0.00 | 0.00 | 72 | 989.6 |
| 20260506084618 | 59 | 118 | 5.2 | 7.8 | 0.00 | 0.00 | 0.00 | 72 | 989.6 |
| 20260506084418 | 59 | 115 | 6.1 | 7.8 | 0.00 | 0.00 | 0.00 | 72 | 989.6 |
| 20260506084218 | 59 | 123 | 5.2 | 7.8 | 0.00 | 0.00 | 0.00 | 72 | 989.7 |
| 20260506084017 | 59 | 120 | 5.2 | 7.0 | 0.00 | 0.00 | 0.00 | 72 | 989.7 |
| 20260506083817 | 59 | 102 | 5.2 | 8.7 | 0.00 | 0.00 | 0.00 | 72 | 989.6 |
| 20260506083617 | 59 | 97 | 6.1 | 8.7 | 0.00 | 0.00 | 0.00 | 72 | 989.6 |
| 20260506083417 | 59 | 99 | 5.2 | 8.7 | 0.00 | 0.00 | 0.00 | 73 | 989.6 |
| 20260506083217 | 59 | 102 | 5.2 | 10.4 | 0.00 | 0.00 | 0.00 | 72 | 989.7 |
| 20260506083017 | 59 | 98 | 7.0 | 10.4 | 0.00 | 0.00 | 0.00 | 72 | 989.7 |
| 20260506082817 | 59 | 93 | 7.0 | 10.4 | 0.00 | 0.00 | 0.00 | 72 | 989.7 |
| 20260506082618 | 59 | 104 | 7.8 | 10.4 | 0.00 | 0.00 | 0.00 | 72 | 989.7 |
| 20260506082406 | 59 | 91 | 7.0 | 10.4 | 0.00 | 0.00 | 0.00 | 72 | 989.7 |
| 20260506081718 | 58 | 104 | 7.8 | 10.4 | 0.00 | 0.00 | 0.00 | 73 | 989.7 |
| 20260506081518 | 58 | 108 | 8.7 | 10.4 | 0.00 | 0.00 | 0.00 | 73 | 989.7 |
| 20260506081318 | 58 | 110 | 7.8 | 10.4 | 0.00 | 0.00 | 0.00 | 73 | 989.7 |
| 20260506081118 | 58 | 103 | 7.8 | 11.3 | 0.00 | 0.00 | 0.00 | 73 | 989.8 |
| 20260506080918 | 58 | 104 | 7.8 | 9.6 | 0.00 | 0.00 | 0.00 | 72 | 989.8 |
| 20260506080718 | 58 | 103 | 8.7 | 12.2 | 0.00 | 0.00 | 0.00 | 72 | 989.8 |
| 20260506080518 | 58 | 95 | 7.0 | 12.2 | 0.00 | 0.00 | 0.00 | 73 | 989.8 |
| 20260506080324 | 58 | 90 | 7.0 | 10.4 | 0.00 | 0.00 | 0.00 | 72 | 989.8 |
| 20260506080117 | 58 | 97 | 8.7 | 10.4 | 0.00 | 0.00 | 0.00 | 73 | 989.7 |
| 20260506073517 | 57 | 90 | 7.8 | 12.2 | 0.00 | 0.00 | 0.00 | 73 | 989.6 |
| 20260506073317 | 57 | 84 | 8.7 | 12.2 | 0.00 | 0.00 | 0.00 | 73 | 989.6 |
| 20260506073116 | 57 | 78 | 7.8 | 11.3 | 0.00 | 0.00 | 0.00 | 73 | 989.5 |
| 20260506072917 | 56 | 73 | 7.0 | 12.2 | 0.00 | 0.00 | 0.00 | 73 | 989.5 |
| 20260506072717 | 56 | 86 | 7.0 | 9.6 | 0.00 | 0.00 | 0.00 | 73 | 989.6 |
| 20260506072516 | 56 | 90 | 7.8 | 10.4 | 0.00 | 0.00 | 0.00 | 74 | 989.7 |
| 20260506072316 | 56 | 91 | 7.8 | 11.3 | 0.00 | 0.00 | 0.00 | 73 | 989.7 |
| 20260506072116 | 56 | 95 | 10.4 | 12.2 | 0.00 | 0.00 | 0.00 | 73 | 989.7 |
| 20260506071916 | 56 | 95 | 9.6 | 12.2 | 0.00 | 0.00 | 0.00 | 73 | 989.8 |
| 20260506071715 | 56 | 90 | 10.4 | 12.2 | 0.00 | 0.00 | 0.00 | 73 | 989.8 |
| 20260506071516 | 56 | 86 | 11.3 | 12.2 | 0.00 | 0.00 | 0.00 | 73 | 989.7 |
| 20260506071316 | 56 | 84 | 9.6 | 13.9 | 0.00 | 0.00 | 0.00 | 73 | 989.7 |
| 20260506071116 | 56 | 87 | 7.8 | 11.3 | 0.00 | 0.00 | 0.00 | 74 | 989.6 |
| 20260506070916 | 56 | 94 | 7.8 | 10.4 | 0.00 | 0.00 | 0.00 | 74 | 989.7 |
| 20260506070717 | 56 | 96 | 8.7 | 11.3 | 0.00 | 0.00 | 0.00 | 74 | 989.8 |
| 20260506070516 | 55 | 85 | 8.7 | 11.3 | 0.00 | 0.00 | 0.00 | 74 | 989.8 |
| 20260506070316 | 55 | 90 | 7.8 | 10.4 | 0.00 | 0.00 | 0.00 | 74 | 989.8 |
| 20260506070115 | 55 | 97 | 8.7 | 11.3 | 0.00 | 0.00 | 0.00 | 74 | 989.8 |
| 20260506062515 | 53 | 83 | 8.7 | 13.9 | 0.00 | 0.00 | 0.00 | 74 | 990.2 |
| 20260506062314 | 53 | 76 | 8.7 | 10.4 | 0.00 | 0.00 | 0.00 | 74 | 990.2 |
| 20260506062114 | 53 | 76 | 7.8 | 10.4 | 0.00 | 0.00 | 0.00 | 74 | 990.2 |
| 20260506061914 | 53 | 82 | 7.8 | 12.2 | 0.00 | 0.00 | 0.00 | 74 | 990.3 |
| 20260506061714 | 53 | 82 | 7.8 | 13.0 | 0.00 | 0.00 | 0.00 | 74 | 990.3 |
| 20260506061514 | 53 | 80 | 8.7 | 13.9 | 0.00 | 0.00 | 0.00 | 74 | 990.4 |
| 20260506061314 | 53 | 84 | 9.6 | 13.9 | 0.00 | 0.00 | 0.00 | 74 | 990.3 |
| 20260506061105 | 53 | 90 | 7.8 | 12.2 | 0.00 | 0.00 | 0.00 | 74 | 990.3 |
| 20260506060907 | 53 | 82 | 7.0 | 10.4 | 0.00 | 0.00 | 0.00 | 75 | 990.3 |
| 20260506060705 | 53 | 80 | 5.2 | 10.4 | 0.00 | 0.00 | 0.00 | 75 | 990.2 |
| 20260506060505 | 53 | 81 | 6.1 | 9.6 | 0.00 | 0.00 | 0.00 | 75 | 990.2 |
| 20260506060305 | 52 | 80 | 7.0 | 11.3 | 0.00 | 0.00 | 0.00 | 75 | 990.3 |
| 20260506060105 | 52 | 84 | 9.6 | 13.0 | 0.00 | 0.00 | 0.00 | 75 | 990.4 |
| 20260506051304 | 50 | 69 | 7.8 | 10.4 | 0.00 | 0.00 | 0.00 | 75 | 990.8 |
| 20260506051104 | 50 | 73 | 7.0 | 10.4 | 0.00 | 0.00 | 0.00 | 75 | 990.8 |
| 20260506050903 | 50 | 69 | 6.1 | 10.4 | 0.00 | 0.00 | 0.00 | 75 | 990.8 |
| 20260506050703 | 49 | 66 | 5.2 | 9.6 | 0.00 | 0.00 | 0.00 | 75 | 990.8 |
| 20260506050503 | 49 | 62 | 8.7 | 13.9 | 0.00 | 0.00 | 0.00 | 75 | 990.7 |
| 20260506050303 | 49 | 61 | 8.7 | 13.9 | 0.00 | 0.00 | 0.00 | 75 | 990.7 |
| 20260506050103 | 49 | 68 | 7.0 | 15.6 | 0.00 | 0.00 | 0.00 | 75 | 990.7 |
| 20260506045103 | 49 | 73 | 6.1 | 8.7 | 0.00 | 0.00 | 0.00 | 75 | 990.9 |
| 20260506044903 | 49 | 74 | 6.1 | 8.7 | 0.00 | 0.00 | 0.00 | 75 | 990.9 |
| 20260506044702 | 49 | 64 | 6.1 | 8.7 | 0.00 | 0.00 | 0.00 | 75 | 990.9 |
| 20260506044503 | 49 | 68 | 7.0 | 11.3 | 0.00 | 0.00 | 0.00 | 75 | 990.8 |
| 20260506044303 | 49 | 72 | 8.7 | 11.3 | 0.00 | 0.00 | 0.00 | 75 | 990.8 |
| 20260506044103 | 49 | 72 | 7.8 | 11.3 | 0.00 | 0.00 | 0.00 | 75 | 990.8 |
| 20260506043903 | 49 | 69 | 7.8 | 10.4 | 0.00 | 0.00 | 0.00 | 75 | 990.8 |
| 20260506043701 | 49 | 65 | 7.8 | 10.4 | 0.00 | 0.00 | 0.00 | 74 | 990.9 |
| 20260506043502 | 49 | 64 | 7.0 | 9.6 | 0.00 | 0.00 | 0.00 | 74 | 991.0 |
| 20260506043302 | 49 | 66 | 7.8 | 13.9 | 0.00 | 0.00 | 0.00 | 74 | 991.1 |
| 20260506043102 | 49 | 66 | 7.0 | 12.2 | 0.00 | 0.00 | 0.00 | 74 | 991.2 |
| 20260506042902 | 49 | 65 | 7.8 | 10.4 | 0.00 | 0.00 | 0.00 | 74 | 991.2 |
| 20260506042701 | 49 | 64 | 9.6 | 12.2 | 0.00 | 0.00 | 0.00 | 74 | 991.2 |
| 20260506042502 | 49 | 64 | 8.7 | 11.3 | 0.00 | 0.00 | 0.00 | 74 | 991.2 |
| 20260506042305 | 49 | 61 | 7.0 | 9.6 | 0.00 | 0.00 | 0.00 | 74 | 991.1 |
| 20260506042102 | 49 | 56 | 7.8 | 12.2 | 0.00 | 0.00 | 0.00 | 74 | 991.0 |
| 20260506041902 | 49 | 61 | 7.0 | 12.2 | 0.00 | 0.00 | 0.00 | 74 | 991.0 |
| 20260506041701 | 49 | 61 | 6.1 | 8.7 | 0.00 | 0.00 | 0.00 | 74 | 991.0 |
| 20260506041502 | 49 | 60 | 7.0 | 10.4 | 0.00 | 0.00 | 0.00 | 74 | 991.0 |
| 20260506041302 | 49 | 62 | 7.0 | 10.4 | 0.00 | 0.00 | 0.00 | 74 | 991.0 |
| 20260506041102 | 49 | 62 | 5.2 | 8.7 | 0.00 | 0.00 | 0.00 | 74 | 991.0 |
| 20260506040902 | 49 | 61 | 7.0 | 8.7 | 0.00 | 0.00 | 0.00 | 74 | 991.0 |
| 20260506040701 | 49 | 65 | 7.0 | 9.6 | 0.00 | 0.00 | 0.00 | 74 | 991.0 |
| 20260506040501 | 49 | 62 | 7.8 | 11.3 | 0.00 | 0.00 | 0.00 | 74 | 990.9 |
| 20260506040301 | 49 | 62 | 7.8 | 11.3 | 0.00 | 0.00 | 0.00 | 74 | 990.8 |
| 20260506040101 | 49 | 60 | 7.8 | 10.4 | 0.00 | 0.00 | 0.00 | 74 | 990.7 |
| 20260506035901 | 48 | 64 | 7.0 | 9.6 | 0.00 | 0.00 | 0.00 | 74 | 990.8 |
| 20260506035700 | 48 | 66 | 7.8 | 10.4 | 0.00 | 0.00 | 0.00 | 74 | 990.8 |
| 20260506035501 | 48 | 63 | 9.6 | 13.0 | 0.00 | 0.00 | 0.00 | 74 | 990.8 |
| 20260506035301 | 48 | 64 | 9.6 | 13.0 | 0.00 | 0.00 | 0.00 | 74 | 990.8 |
| 20260506035101 | 48 | 57 | 7.0 | 11.3 | 0.00 | 0.00 | 0.00 | 74 | 990.9 |
| 20260506034901 | 48 | 55 | 7.8 | 11.3 | 0.00 | 0.00 | 0.00 | 74 | 991.0 |
| 20260506034700 | 48 | 56 | 9.6 | 12.2 | 0.00 | 0.00 | 0.00 | 74 | 991.0 |
| 20260506034501 | 48 | 58 | 8.7 | 11.3 | 0.00 | 0.00 | 0.00 | 74 | 991.0 |
| 20260506034301 | 48 | 64 | 8.7 | 12.2 | 0.00 | 0.00 | 0.00 | 74 | 990.9 |
| 20260506034104 | 48 | 60 | 7.8 | 12.2 | 0.00 | 0.00 | 0.00 | 74 | 990.9 |
| 20260506033900 | 48 | 56 | 7.8 | 12.2 | 0.00 | 0.00 | 0.00 | 74 | 991.0 |
| 20260506033452 | 48 | 58 | 7.8 | 10.4 | 0.00 | 0.00 | 0.00 | 74 | 991.1 |
| 20260506033252 | 48 | 57 | 7.8 | 9.6 | 0.00 | 0.00 | 0.00 | 74 | 991.2 |
| 20260506033052 | 48 | 57 | 7.0 | 9.6 | 0.00 | 0.00 | 0.00 | 74 | 991.2 |
| 20260506032852 | 48 | 59 | 6.1 | 8.7 | 0.00 | 0.00 | 0.00 | 74 | 991.2 |
| 20260506032652 | 48 | 61 | 7.0 | 9.6 | 0.00 | 0.00 | 0.00 | 74 | 991.1 |
| 20260506032452 | 48 | 65 | 7.8 | 11.3 | 0.00 | 0.00 | 0.00 | 74 | 991.1 |
| 20260506032252 | 48 | 65 | 7.0 | 11.3 | 0.00 | 0.00 | 0.00 | 73 | 991.1 |
| 20260506032052 | 48 | 62 | 7.0 | 9.6 | 0.00 | 0.00 | 0.00 | 73 | 991.0 |
| 20260506031852 | 48 | 55 | 7.8 | 11.3 | 0.00 | 0.00 | 0.00 | 74 | 991.0 |
| 20260506031652 | 48 | 59 | 7.8 | 11.3 | 0.00 | 0.00 | 0.00 | 73 | 991.0 |
| 20260506031452 | 48 | 60 | 8.7 | 11.3 | 0.00 | 0.00 | 0.00 | 73 | 991.0 |
| 20260506031252 | 48 | 59 | 8.7 | 11.3 | 0.00 | 0.00 | 0.00 | 73 | 991.0 |
| 20260506031051 | 48 | 60 | 7.8 | 10.4 | 0.00 | 0.00 | 0.00 | 73 | 991.1 |
| 20260506030852 | 48 | 57 | 8.7 | 11.3 | 0.00 | 0.00 | 0.00 | 73 | 991.1 |
| 20260506030652 | 48 | 56 | 8.7 | 12.2 | 0.00 | 0.00 | 0.00 | 73 | 991.1 |
| 20260506030451 | 48 | 57 | 7.0 | 10.4 | 0.00 | 0.00 | 0.00 | 73 | 991.1 |
| 20260506030251 | 48 | 60 | 7.0 | 9.6 | 0.00 | 0.00 | 0.00 | 73 | 991.2 |
| 20260506030051 | 48 | 59 | 7.0 | 9.6 | 0.00 | 0.00 | 0.00 | 73 | 991.3 |
| 20260506025851 | 48 | 59 | 7.8 | 10.4 | 0.00 | 0.00 | 0.00 | 73 | 991.3 |
| 20260506025651 | 48 | 56 | 7.8 | 11.3 | 0.00 | 0.00 | 0.00 | 73 | 991.4 |
| 20260506025451 | 48 | 61 | 7.0 | 9.6 | 0.00 | 0.00 | 0.00 | 73 | 991.4 |
| 20260506025251 | 48 | 62 | 7.0 | 9.6 | 0.00 | 0.00 | 0.00 | 72 | 991.5 |
| 20260506025051 | 48 | 60 | 6.1 | 7.8 | 0.00 | 0.00 | 0.00 | 72 | 991.5 |
| 20260506024851 | 49 | 61 | 6.1 | 9.6 | 0.00 | 0.00 | 0.00 | 73 | 991.5 |
| 20260506024651 | 49 | 63 | 5.2 | 7.8 | 0.00 | 0.00 | 0.00 | 72 | 991.5 |
| 20260506024451 | 49 | 55 | 6.1 | 7.0 | 0.00 | 0.00 | 0.00 | 72 | 991.5 |
| 20260506024251 | 49 | 54 | 5.2 | 7.0 | 0.00 | 0.00 | 0.00 | 72 | 991.5 |
| 20260506024051 | 49 | 55 | 5.2 | 7.0 | 0.00 | 0.00 | 0.00 | 72 | 991.5 |
| 20260506023851 | 49 | 59 | 5.2 | 7.0 | 0.00 | 0.00 | 0.00 | 72 | 991.5 |
| 20260506023651 | 49 | 53 | 5.2 | 6.1 | 0.00 | 0.00 | 0.00 | 72 | 991.4 |
| 20260506023451 | 49 | 53 | 6.1 | 9.6 | 0.00 | 0.00 | 0.00 | 72 | 991.4 |
| 20260506023250 | 49 | 56 | 7.0 | 9.6 | 0.00 | 0.00 | 0.00 | 72 | 991.4 |
| 20260506023050 | 49 | 57 | 6.1 | 7.8 | 0.00 | 0.00 | 0.00 | 72 | 991.3 |
| 20260506022850 | 49 | 55 | 6.1 | 8.7 | 0.00 | 0.00 | 0.00 | 72 | 991.3 |
| 20260506022650 | 49 | 50 | 7.0 | 9.6 | 0.00 | 0.00 | 0.00 | 72 | 991.3 |
| 20260506022451 | 49 | 53 | 7.0 | 8.7 | 0.00 | 0.00 | 0.00 | 72 | 991.3 |
| 20260506022251 | 49 | 59 | 7.0 | 8.7 | 0.00 | 0.00 | 0.00 | 72 | 991.3 |
| 20260506022050 | 49 | 59 | 6.1 | 7.8 | 0.00 | 0.00 | 0.00 | 71 | 991.3 |
| 20260506021850 | 49 | 57 | 7.0 | 8.7 | 0.00 | 0.00 | 0.00 | 71 | 991.3 |
| 20260506021650 | 49 | 60 | 7.0 | 9.6 | 0.00 | 0.00 | 0.00 | 71 | 991.3 |
| 20260506021451 | 50 | 59 | 7.0 | 9.6 | 0.00 | 0.00 | 0.00 | 71 | 991.3 |
| 20260506021250 | 50 | 60 | 5.2 | 7.0 | 0.00 | 0.00 | 0.00 | 71 | 991.3 |
| 20260506021050 | 50 | 62 | 5.2 | 7.0 | 0.00 | 0.00 | 0.00 | 71 | 991.3 |
| 20260506020850 | 50 | 64 | 5.2 | 6.1 | 0.00 | 0.00 | 0.00 | 71 | 991.3 |
| 20260506020652 | 50 | 57 | 5.2 | 7.0 | 0.00 | 0.00 | 0.00 | 71 | 991.4 |
| 20260506020450 | 50 | 61 | 6.1 | 10.4 | 0.00 | 0.00 | 0.00 | 71 | 991.3 |
| 20260506020249 | 50 | 61 | 6.1 | 10.4 | 0.00 | 0.00 | 0.00 | 71 | 991.3 |
| 20260506020049 | 50 | 58 | 5.2 | 8.7 | 0.00 | 0.00 | 0.00 | 71 | 991.3 |
| 20260506015849 | 50 | 58 | 6.1 | 7.8 | 0.00 | 0.00 | 0.00 | 71 | 991.3 |
| 20260506015648 | 50 | 63 | 6.1 | 8.7 | 0.00 | 0.00 | 0.00 | 71 | 991.2 |
| 20260506015449 | 50 | 65 | 6.1 | 9.6 | 0.00 | 0.00 | 0.00 | 71 | 991.2 |
| 20260506015250 | 50 | 68 | 7.8 | 11.3 | 0.00 | 0.00 | 0.00 | 71 | 991.1 |
| 20260506015049 | 50 | 66 | 7.0 | 8.7 | 0.00 | 0.00 | 0.00 | 71 | 991.1 |
| 20260506014850 | 50 | 65 | 7.0 | 8.7 | 0.00 | 0.00 | 0.00 | 71 | 991.1 |
| 20260506014648 | 50 | 69 | 7.8 | 12.2 | 0.00 | 0.00 | 0.00 | 71 | 991.1 |
| 20260506014448 | 50 | 67 | 5.2 | 7.8 | 0.00 | 0.00 | 0.00 | 71 | 991.2 |
| 20260506014248 | 50 | 63 | 6.1 | 7.8 | 0.00 | 0.00 | 0.00 | 71 | 991.2 |
| 20260506014048 | 50 | 61 | 7.0 | 8.7 | 0.00 | 0.00 | 0.00 | 71 | 991.2 |
| 20260506013848 | 50 | 61 | 7.0 | 9.6 | 0.00 | 0.00 | 0.00 | 71 | 991.2 |
| 20260506013648 | 50 | 61 | 7.0 | 9.6 | 0.00 | 0.00 | 0.00 | 71 | 991.2 |
| 20260506013448 | 50 | 60 | 7.0 | 9.6 | 0.00 | 0.00 | 0.00 | 71 | 991.3 |
| 20260506013248 | 50 | 63 | 5.2 | 9.6 | 0.00 | 0.00 | 0.00 | 71 | 991.3 |
| 20260506013047 | 50 | 60 | 7.0 | 8.7 | 0.00 | 0.00 | 0.00 | 71 | 991.2 |
| 20260506012848 | 50 | 60 | 7.0 | 8.7 | 0.00 | 0.00 | 0.00 | 71 | 991.2 |
| 20260506012647 | 50 | 58 | 7.8 | 12.2 | 0.00 | 0.00 | 0.00 | 71 | 991.2 |
| 20260506012447 | 50 | 59 | 7.8 | 12.2 | 0.00 | 0.00 | 0.00 | 71 | 991.2 |
| 20260506012248 | 50 | 59 | 7.8 | 9.6 | 0.00 | 0.00 | 0.00 | 71 | 991.2 |
| 20260506012047 | 50 | 63 | 7.8 | 10.4 | 0.00 | 0.00 | 0.00 | 71 | 991.2 |
| 20260506011847 | 50 | 61 | 7.0 | 9.6 | 0.00 | 0.00 | 0.00 | 70 | 991.2 |
| 20260506011647 | 50 | 61 | 7.8 | 9.6 | 0.00 | 0.00 | 0.00 | 70 | 991.2 |
| 20260506011447 | 50 | 63 | 8.7 | 13.0 | 0.00 | 0.00 | 0.00 | 70 | 991.2 |
| 20260506011247 | 50 | 64 | 7.8 | 10.4 | 0.00 | 0.00 | 0.00 | 70 | 991.2 |
| 20260506011047 | 50 | 59 | 7.0 | 9.6 | 0.00 | 0.00 | 0.00 | 70 | 991.2 |
| 20260506010847 | 51 | 58 | 8.7 | 12.2 | 0.00 | 0.00 | 0.00 | 70 | 991.2 |
| 20260506010647 | 51 | 63 | 7.8 | 12.2 | 0.00 | 0.00 | 0.00 | 70 | 991.2 |
| 20260506010447 | 51 | 65 | 7.8 | 9.6 | 0.00 | 0.00 | 0.00 | 70 | 991.2 |
| 20260506010246 | 51 | 63 | 8.7 | 10.4 | 0.00 | 0.00 | 0.00 | 70 | 991.1 |
| 20260506010042 | 51 | 58 | 10.4 | 15.6 | 0.00 | 0.00 | 0.00 | 70 | 991.0 |
| 20260506005842 | 51 | 59 | 11.3 | 15.6 | 0.00 | 0.00 | 0.00 | 70 | 991.0 |
| 20260506005642 | 51 | 60 | 8.7 | 11.3 | 0.00 | 0.00 | 0.00 | 70 | 991.1 |
| 20260506005442 | 51 | 55 | 9.6 | 12.2 | 0.00 | 0.00 | 0.00 | 70 | 991.1 |
| 20260506005242 | 51 | 49 | 10.4 | 14.8 | 0.00 | 0.00 | 0.00 | 70 | 991.1 |
| 20260506005042 | 51 | 55 | 8.7 | 14.8 | 0.00 | 0.00 | 0.00 | 70 | 991.1 |
| 20260506004842 | 51 | 58 | 7.8 | 10.4 | 0.00 | 0.00 | 0.00 | 70 | 991.1 |
| 20260506004643 | 51 | 58 | 8.7 | 12.2 | 0.00 | 0.00 | 0.00 | 70 | 991.0 |
| 20260506004442 | 51 | 53 | 10.4 | 13.9 | 0.00 | 0.00 | 0.00 | 70 | 991.0 |
| 20260506004242 | 51 | 55 | 10.4 | 13.9 | 0.00 | 0.00 | 0.00 | 70 | 991.0 |
| 20260506004042 | 51 | 60 | 9.6 | 13.0 | 0.00 | 0.00 | 0.00 | 70 | 991.0 |
| 20260506003842 | 51 | 55 | 9.6 | 13.0 | 0.00 | 0.00 | 0.00 | 70 | 991.0 |
| 20260506003642 | 51 | 56 | 10.4 | 13.0 | 0.00 | 0.00 | 0.00 | 70 | 991.0 |
| 20260506003442 | 51 | 60 | 10.4 | 13.9 | 0.00 | 0.00 | 0.00 | 70 | 991.0 |
| 20260506003242 | 51 | 67 | 9.6 | 13.9 | 0.00 | 0.00 | 0.00 | 70 | 991.0 |
| 20260506003042 | 51 | 60 | 8.7 | 12.2 | 0.00 | 0.00 | 0.00 | 70 | 991.0 |
| 20260506002841 | 51 | 58 | 9.6 | 14.8 | 0.00 | 0.00 | 0.00 | 70 | 991.0 |
| 20260506002641 | 51 | 55 | 10.4 | 14.8 | 0.00 | 0.00 | 0.00 | 70 | 991.1 |
| 20260506002441 | 51 | 57 | 8.7 | 13.9 | 0.00 | 0.00 | 0.00 | 70 | 991.1 |
| 20260506002241 | 51 | 54 | 8.7 | 13.9 | 0.00 | 0.00 | 0.00 | 70 | 991.1 |
| 20260506002041 | 51 | 54 | 9.6 | 13.9 | 0.00 | 0.00 | 0.00 | 70 | 991.2 |
| 20260506001842 | 51 | 54 | 9.6 | 13.9 | 0.00 | 0.00 | 0.00 | 69 | 991.2 |
| 20260506001641 | 51 | 51 | 8.7 | 11.3 | 0.00 | 0.00 | 0.00 | 70 | 991.2 |
| 20260506001441 | 51 | 52 | 8.7 | 12.2 | 0.00 | 0.00 | 0.00 | 70 | 991.2 |
| 20260506001241 | 51 | 54 | 9.6 | 13.9 | 0.00 | 0.00 | 0.00 | 70 | 991.1 |
| 20260506001041 | 51 | 52 | 10.4 | 15.6 | 0.00 | 0.00 | 0.00 | 69 | 991.1 |
| 20260506000841 | 51 | 52 | 10.4 | 15.6 | 0.00 | 0.00 | 0.00 | 70 | 991.1 |
| 20260506000641 | 51 | 52 | 11.3 | 14.8 | 0.00 | 0.00 | 0.00 | 70 | 991.1 |
| 20260506000441 | 51 | 55 | 11.3 | 14.8 | 0.00 | 0.00 | 0.00 | 70 | 991.1 |
| 20260506000241 | 51 | 55 | 10.4 | 14.8 | 0.00 | 0.00 | 0.00 | 70 | 991.1 |
| 20260506000041 | 51 | 56 | 10.4 | 13.9 | 0.00 | 0.00 | 0.00 | 70 | 991.1 |
| 20260505235840 | 51 | 55 | 11.3 | 15.6 | 0.00 | 0.00 | 0.00 | 70 | 991.1 |
| 20260505235640 | 51 | 54 | 9.6 | 14.8 | 0.00 | 0.00 | 0.00 | 70 | 991.1 |
| 20260505235440 | 51 | 50 | 8.7 | 11.3 | 0.00 | 0.00 | 0.00 | 70 | 991.2 |
| 20260505235243 | 51 | 49 | 8.7 | 10.4 | 0.00 | 0.00 | 0.00 | 70 | 991.2 |
| 20260505235040 | 51 | 49 | 9.6 | 14.8 | 0.00 | 0.00 | 0.00 | 70 | 991.2 |
| 20260505234840 | 51 | 49 | 9.6 | 14.8 | 0.00 | 0.00 | 0.00 | 70 | 991.3 |
| 20260505234640 | 51 | 50 | 8.7 | 11.3 | 0.00 | 0.00 | 0.00 | 70 | 991.3 |
| 20260505234440 | 51 | 50 | 8.7 | 11.3 | 0.00 | 0.00 | 0.00 | 70 | 991.3 |
| 20260505234241 | 51 | 43 | 9.6 | 12.2 | 0.00 | 0.00 | 0.00 | 70 | 991.2 |
| 20260505234039 | 51 | 44 | 8.7 | 12.2 | 0.00 | 0.00 | 0.00 | 69 | 991.3 |
| 20260505233840 | 51 | 44 | 8.7 | 11.3 | 0.00 | 0.00 | 0.00 | 69 | 991.3 |
| 20260505233639 | 51 | 48 | 8.7 | 14.8 | 0.00 | 0.00 | 0.00 | 70 | 991.3 |
| 20260505233440 | 51 | 50 | 8.7 | 11.3 | 0.00 | 0.00 | 0.00 | 69 | 991.3 |
| 20260505233240 | 51 | 51 | 8.7 | 11.3 | 0.00 | 0.00 | 0.00 | 69 | 991.3 |
| 20260505233040 | 51 | 51 | 8.7 | 13.0 | 0.00 | 0.00 | 0.00 | 69 | 991.3 |
| 20260505232840 | 51 | 47 | 8.7 | 13.0 | 0.00 | 0.00 | 0.00 | 69 | 991.3 |
| 20260505232638 | 51 | 47 | 7.8 | 10.4 | 0.00 | 0.00 | 0.00 | 69 | 991.3 |
| 20260505232439 | 51 | 47 | 7.0 | 10.4 | 0.00 | 0.00 | 0.00 | 69 | 991.3 |
| 20260505232239 | 51 | 47 | 8.7 | 11.3 | 0.00 | 0.00 | 0.00 | 69 | 991.3 |
| 20260505232039 | 51 | 50 | 8.7 | 11.3 | 0.00 | 0.00 | 0.00 | 69 | 991.3 |
| 20260505231839 | 52 | 48 | 8.7 | 11.3 | 0.00 | 0.00 | 0.00 | 69 | 991.3 |
| 20260505231638 | 52 | 47 | 8.7 | 12.2 | 0.00 | 0.00 | 0.00 | 69 | 991.3 |
| 20260505231439 | 52 | 45 | 8.7 | 10.4 | 0.00 | 0.00 | 0.00 | 69 | 991.3 |
| 20260505231238 | 52 | 40 | 8.7 | 11.3 | 0.00 | 0.00 | 0.00 | 69 | 991.3 |
| 20260505231038 | 52 | 43 | 8.7 | 12.2 | 0.00 | 0.00 | 0.00 | 69 | 991.3 |
| 20260505230838 | 52 | 40 | 9.6 | 12.2 | 0.00 | 0.00 | 0.00 | 69 | 991.3 |
| 20260505230638 | 52 | 39 | 8.7 | 11.3 | 0.00 | 0.00 | 0.00 | 69 | 991.4 |
| 20260505230439 | 52 | 39 | 7.8 | 11.3 | 0.00 | 0.00 | 0.00 | 69 | 991.3 |
| 20260505230238 | 52 | 39 | 7.8 | 10.4 | 0.00 | 0.00 | 0.00 | 69 | 991.4 |
| 20260505230039 | 52 | 44 | 9.6 | 12.2 | 0.00 | 0.00 | 0.00 | 69 | 991.3 |
| 20260505225839 | 52 | 50 | 11.3 | 14.8 | 0.00 | 0.00 | 0.00 | 69 | 991.3 |
| 20260505225637 | 52 | 47 | 9.6 | 13.9 | 0.00 | 0.00 | 0.00 | 69 | 991.3 |
| 20260505225438 | 52 | 45 | 9.6 | 12.2 | 0.00 | 0.00 | 0.00 | 69 | 991.2 |
| 20260505225238 | 52 | 51 | 10.4 | 13.9 | 0.00 | 0.00 | 0.00 | 69 | 991.1 |
| 20260505225038 | 52 | 52 | 9.6 | 13.0 | 0.00 | 0.00 | 0.00 | 69 | 991.1 |
| 20260505224838 | 52 | 55 | 8.7 | 13.0 | 0.00 | 0.00 | 0.00 | 69 | 991.1 |
| 20260505224637 | 52 | 59 | 9.6 | 13.0 | 0.00 | 0.00 | 0.00 | 69 | 991.1 |
| 20260505224438 | 52 | 56 | 8.7 | 12.2 | 0.00 | 0.00 | 0.00 | 69 | 991.2 |
| 20260505224238 | 52 | 55 | 8.7 | 12.2 | 0.00 | 0.00 | 0.00 | 69 | 991.2 |
| 20260505224037 | 52 | 52 | 8.7 | 12.2 | 0.00 | 0.00 | 0.00 | 69 | 991.2 |
| 20260505223838 | 52 | 49 | 8.7 | 11.3 | 0.00 | 0.00 | 0.00 | 69 | 991.2 |
| 20260505223637 | 52 | 49 | 9.6 | 12.2 | 0.00 | 0.00 | 0.00 | 69 | 991.2 |
| 20260505223437 | 52 | 52 | 7.8 | 9.6 | 0.00 | 0.00 | 0.00 | 69 | 991.3 |
| 20260505223237 | 52 | 60 | 7.0 | 9.6 | 0.00 | 0.00 | 0.00 | 69 | 991.3 |
| 20260505223038 | 52 | 53 | 7.8 | 9.6 | 0.00 | 0.00 | 0.00 | 69 | 991.3 |
| 20260505222837 | 53 | 49 | 8.7 | 12.2 | 0.00 | 0.00 | 0.00 | 69 | 991.4 |
| 20260505222428 | 53 | 54 | 9.6 | 12.2 | 0.00 | 0.00 | 0.00 | 69 | 991.3 |
| 20260505222229 | 53 | 49 | 7.8 | 12.2 | 0.00 | 0.00 | 0.00 | 69 | 991.3 |
| 20260505222028 | 53 | 53 | 7.8 | 13.9 | 0.00 | 0.00 | 0.00 | 69 | 991.3 |
| 20260505221829 | 53 | 56 | 9.6 | 13.9 | 0.00 | 0.00 | 0.00 | 69 | 991.3 |
| 20260505221629 | 53 | 55 | 8.7 | 14.8 | 0.00 | 0.00 | 0.00 | 69 | 991.3 |
| 20260505221429 | 53 | 62 | 9.6 | 15.6 | 0.00 | 0.00 | 0.00 | 69 | 991.3 |
| 20260505221228 | 53 | 58 | 8.7 | 11.3 | 0.00 | 0.00 | 0.00 | 69 | 991.3 |
| 20260505221028 | 53 | 55 | 8.7 | 12.2 | 0.00 | 0.00 | 0.00 | 69 | 991.3 |
| 20260505220828 | 53 | 54 | 7.8 | 12.2 | 0.00 | 0.00 | 0.00 | 69 | 991.4 |
| 20260505220629 | 53 | 52 | 7.0 | 10.4 | 0.00 | 0.00 | 0.00 | 69 | 991.4 |
| 20260505220428 | 53 | 45 | 7.0 | 10.4 | 0.00 | 0.00 | 0.00 | 69 | 991.4 |
| 20260505220228 | 53 | 45 | 7.0 | 10.4 | 0.00 | 0.00 | 0.00 | 69 | 991.5 |
| 20260505220028 | 53 | 41 | 7.0 | 10.4 | 0.00 | 0.00 | 0.00 | 69 | 991.5 |
| 20260505215827 | 53 | 36 | 7.0 | 11.3 | 0.00 | 0.00 | 0.00 | 69 | 991.5 |
| 20260505215627 | 53 | 42 | 7.0 | 11.3 | 0.00 | 0.00 | 0.00 | 69 | 991.5 |
| 20260505215427 | 53 | 43 | 6.1 | 8.7 | 0.00 | 0.00 | 0.00 | 69 | 991.5 |
| 20260505215227 | 53 | 43 | 7.0 | 9.6 | 0.00 | 0.00 | 0.00 | 69 | 991.4 |
| 20260505215027 | 53 | 39 | 7.8 | 10.4 | 0.00 | 0.00 | 0.00 | 69 | 991.5 |
| 20260505214827 | 53 | 43 | 7.8 | 10.4 | 0.00 | 0.00 | 0.00 | 69 | 991.5 |
| 20260505214627 | 53 | 45 | 7.0 | 9.6 | 0.00 | 0.00 | 0.00 | 69 | 991.5 |
| 20260505214428 | 53 | 47 | 7.0 | 9.6 | 0.00 | 0.00 | 0.00 | 69 | 991.5 |
| 20260505214227 | 53 | 48 | 6.1 | 9.6 | 0.00 | 0.00 | 0.00 | 69 | 991.4 |
| 20260505214027 | 53 | 44 | 7.0 | 11.3 | 0.00 | 0.00 | 0.00 | 69 | 991.4 |
| 20260505213827 | 53 | 46 | 8.7 | 13.0 | 0.00 | 0.00 | 0.00 | 69 | 991.4 |
| 20260505213627 | 54 | 39 | 7.0 | 9.6 | 0.00 | 0.00 | 0.00 | 69 | 991.4 |
| 20260505213427 | 54 | 45 | 7.8 | 12.2 | 0.00 | 0.00 | 0.00 | 69 | 991.4 |
| 20260505213227 | 54 | 47 | 8.7 | 12.2 | 0.00 | 0.00 | 0.00 | 69 | 991.4 |
| 20260505213027 | 54 | 50 | 7.8 | 11.3 | 0.00 | 0.00 | 0.00 | 69 | 991.4 |
| 20260505212827 | 54 | 48 | 7.0 | 9.6 | 0.00 | 0.00 | 0.00 | 69 | 991.4 |
| 20260505212626 | 54 | 46 | 7.0 | 10.4 | 0.00 | 0.00 | 0.00 | 69 | 991.4 |
| 20260505212426 | 54 | 48 | 7.8 | 9.6 | 0.00 | 0.00 | 0.00 | 69 | 991.4 |
| 20260505212226 | 54 | 47 | 8.7 | 12.2 | 0.00 | 0.00 | 0.00 | 69 | 991.4 |
| 20260505212026 | 54 | 47 | 11.3 | 13.9 | 0.00 | 0.00 | 0.00 | 69 | 991.4 |
| 20260505211826 | 54 | 52 | 10.4 | 13.0 | 0.00 | 0.00 | 0.00 | 69 | 991.4 |
| 20260505211626 | 54 | 46 | 8.7 | 13.0 | 0.00 | 0.00 | 0.00 | 69 | 991.5 |
| 20260505211426 | 54 | 41 | 9.6 | 11.3 | 0.00 | 0.00 | 0.00 | 70 | 991.5 |
| 20260505211226 | 54 | 42 | 9.6 | 12.2 | 0.00 | 0.00 | 0.00 | 70 | 991.6 |
| 20260505211026 | 54 | 42 | 7.8 | 11.3 | 0.00 | 0.00 | 0.00 | 70 | 991.6 |
| 20260505210826 | 54 | 38 | 9.6 | 12.2 | 0.00 | 0.00 | 0.00 | 70 | 991.6 |
| 20260505210626 | 55 | 37 | 9.6 | 11.3 | 0.00 | 0.00 | 0.00 | 70 | 991.6 |
| 20260505210426 | 55 | 37 | 9.6 | 11.3 | 0.00 | 0.00 | 0.00 | 70 | 991.7 |
| 20260505210226 | 55 | 39 | 9.6 | 13.0 | 0.00 | 0.00 | 0.00 | 70 | 991.7 |
| 20260505210026 | 55 | 37 | 8.7 | 13.0 | 0.00 | 0.00 | 0.00 | 70 | 991.7 |
| 20260505205826 | 55 | 41 | 9.6 | 13.0 | 0.00 | 0.00 | 0.00 | 70 | 991.7 |
| 20260505205625 | 55 | 35 | 10.4 | 13.0 | 0.00 | 0.00 | 0.00 | 70 | 991.7 |
| 20260505205426 | 55 | 31 | 10.4 | 13.0 | 0.00 | 0.00 | 0.00 | 70 | 991.7 |
| 20260505205226 | 55 | 28 | 10.4 | 13.9 | 0.00 | 0.00 | 0.00 | 70 | 991.7 |
| 20260505205026 | 55 | 27 | 9.6 | 13.9 | 0.00 | 0.00 | 0.00 | 70 | 991.8 |
| 20260505204826 | 55 | 27 | 8.7 | 11.3 | 0.00 | 0.00 | 0.00 | 70 | 991.7 |
| 20260505204625 | 55 | 33 | 9.6 | 13.9 | 0.00 | 0.00 | 0.00 | 71 | 991.7 |
| 20260505204426 | 55 | 28 | 9.6 | 13.0 | 0.00 | 0.00 | 0.00 | 71 | 991.8 |
| 20260505204226 | 55 | 31 | 8.7 | 12.2 | 0.00 | 0.00 | 0.00 | 71 | 991.8 |
| 20260505204025 | 56 | 30 | 8.7 | 11.3 | 0.00 | 0.00 | 0.00 | 71 | 991.8 |
| 20260505203826 | 56 | 28 | 9.6 | 13.9 | 0.00 | 0.00 | 0.00 | 71 | 991.8 |
| 20260505203625 | 56 | 28 | 9.6 | 13.9 | 0.00 | 0.00 | 0.00 | 71 | 991.8 |
| 20260505203425 | 56 | 27 | 8.7 | 13.0 | 0.00 | 0.00 | 0.00 | 71 | 991.7 |
| 20260505203225 | 56 | 29 | 7.8 | 9.6 | 0.00 | 0.00 | 0.00 | 71 | 991.7 |
| 20260505203026 | 56 | 34 | 7.8 | 9.6 | 0.00 | 0.00 | 0.00 | 70 | 991.7 |
| 20260505202825 | 56 | 32 | 8.7 | 10.4 | 0.00 | 0.00 | 0.00 | 70 | 991.7 |
| 20260505202625 | 57 | 30 | 9.6 | 13.9 | 0.00 | 0.00 | 0.00 | 70 | 991.7 |
| 20260505202427 | 57 | 25 | 9.6 | 13.9 | 0.00 | 0.00 | 0.00 | 70 | 991.7 |
| 20260505202225 | 57 | 26 | 8.7 | 12.2 | 0.00 | 0.00 | 0.00 | 70 | 991.7 |
| 20260505202025 | 57 | 23 | 8.7 | 10.4 | 0.00 | 0.00 | 0.00 | 70 | 991.6 |
| 20260505201825 | 57 | 26 | 7.8 | 10.4 | 0.00 | 0.00 | 0.00 | 70 | 991.6 |
| 20260505201624 | 57 | 32 | 7.0 | 7.8 | 0.00 | 0.00 | 0.00 | 70 | 991.6 |
| 20260505201425 | 57 | 34 | 7.0 | 7.8 | 0.00 | 0.00 | 0.00 | 70 | 991.6 |
| 20260505201225 | 58 | 33 | 7.0 | 10.4 | 0.00 | 0.00 | 0.00 | 70 | 991.6 |
| 20260505201025 | 58 | 34 | 7.0 | 8.7 | 0.00 | 0.00 | 0.00 | 70 | 991.6 |
| 20260505200824 | 58 | 32 | 7.8 | 10.4 | 0.00 | 0.00 | 0.00 | 70 | 991.5 |
| 20260505200624 | 58 | 26 | 8.7 | 10.4 | 0.00 | 0.00 | 0.00 | 70 | 991.5 |
| 20260505200425 | 58 | 30 | 8.7 | 10.4 | 0.00 | 0.00 | 0.00 | 70 | 991.5 |
| 20260505200224 | 58 | 24 | 7.0 | 10.4 | 0.00 | 0.00 | 0.00 | 70 | 991.5 |
| 20260505200024 | 58 | 23 | 7.0 | 8.7 | 0.00 | 0.00 | 0.00 | 70 | 991.5 |
| 20260505195826 | 58 | 26 | 7.0 | 9.6 | 0.00 | 0.00 | 0.00 | 70 | 991.4 |
| 20260505195624 | 58 | 23 | 7.8 | 9.6 | 0.00 | 0.00 | 0.00 | 70 | 991.4 |
| 20260505195424 | 58 | 24 | 8.7 | 11.3 | 0.00 | 0.00 | 0.00 | 70 | 991.4 |
| 20260505195224 | 58 | 20 | 7.0 | 10.4 | 0.00 | 0.00 | 0.00 | 70 | 991.4 |
| 20260505195015 | 59 | 17 | 6.1 | 7.8 | 0.00 | 0.00 | 0.00 | 70 | 991.4 |
| 20260505194815 | 59 | 23 | 6.1 | 8.7 | 0.00 | 0.00 | 0.00 | 69 | 991.4 |
| 20260505194615 | 59 | 23 | 7.0 | 8.7 | 0.00 | 0.00 | 0.00 | 69 | 991.4 |
| 20260505194415 | 59 | 20 | 7.0 | 8.7 | 0.00 | 0.00 | 0.00 | 70 | 991.4 |
| 20260505194215 | 59 | 22 | 7.0 | 8.7 | 0.00 | 0.00 | 0.00 | 69 | 991.4 |
| 20260505194015 | 59 | 23 | 7.0 | 8.7 | 0.00 | 0.00 | 0.00 | 69 | 991.4 |
| 20260505193815 | 59 | 32 | 7.8 | 8.7 | 0.00 | 0.00 | 0.00 | 69 | 991.4 |
| 20260505193615 | 59 | 32 | 7.0 | 10.4 | 0.00 | 0.00 | 0.00 | 69 | 991.4 |
| 20260505193415 | 59 | 32 | 7.8 | 10.4 | 0.00 | 0.00 | 0.00 | 69 | 991.4 |
| 20260505193215 | 59 | 33 | 7.8 | 10.4 | 0.00 | 0.00 | 0.00 | 69 | 991.4 |
| 20260505193015 | 59 | 33 | 7.0 | 10.4 | 0.00 | 0.00 | 0.00 | 69 | 991.4 |
| 20260505192815 | 59 | 30 | 6.1 | 8.7 | 0.00 | 0.00 | 0.00 | 69 | 991.4 |
| 20260505192615 | 60 | 35 | 7.0 | 8.7 | 0.00 | 0.00 | 0.00 | 69 | 991.4 |
| 20260505192415 | 60 | 33 | 7.8 | 10.4 | 0.00 | 0.00 | 0.00 | 69 | 991.4 |
| 20260505192215 | 60 | 29 | 7.8 | 10.4 | 0.00 | 0.00 | 0.00 | 69 | 991.4 |
| 20260505192015 | 60 | 24 | 7.8 | 9.6 | 0.00 | 0.00 | 0.00 | 69 | 991.4 |
| 20260505191814 | 60 | 26 | 7.0 | 9.6 | 0.00 | 0.00 | 0.00 | 69 | 991.3 |
| 20260505191614 | 60 | 19 | 7.8 | 11.3 | 0.00 | 0.00 | 0.00 | 69 | 991.3 |
| 20260505191416 | 60 | 17 | 7.8 | 11.3 | 0.00 | 0.00 | 0.00 | 69 | 991.3 |
| 20260505191214 | 61 | 23 | 7.0 | 11.3 | 0.00 | 0.00 | 0.00 | 69 | 991.3 |
| 20260505191014 | 61 | 30 | 7.0 | 9.6 | 0.00 | 0.00 | 0.00 | 68 | 991.3 |
| 20260505190814 | 61 | 35 | 7.8 | 9.6 | 0.00 | 0.00 | 0.00 | 68 | 991.2 |
| 20260505190614 | 61 | 31 | 7.0 | 8.7 | 0.00 | 0.00 | 0.00 | 68 | 991.2 |
| 20260505190414 | 61 | 22 | 6.1 | 7.8 | 0.00 | 0.00 | 0.00 | 68 | 991.2 |
| 20260505190214 | 61 | 29 | 7.0 | 9.6 | 0.00 | 0.00 | 0.00 | 68 | 991.2 |
| 20260505190014 | 62 | 27 | 7.8 | 9.6 | 0.00 | 0.00 | 0.00 | 67 | 991.2 |
| 20260505185814 | 62 | 20 | 6.1 | 8.7 | 0.00 | 0.00 | 0.00 | 67 | 991.2 |
| 20260505185614 | 62 | 27 | 6.1 | 7.0 | 0.00 | 0.00 | 0.00 | 67 | 991.2 |
| 20260505185414 | 62 | 30 | 6.1 | 7.8 | 0.00 | 0.00 | 0.00 | 67 | 991.1 |
| 20260505185214 | 62 | 32 | 6.1 | 7.8 | 0.00 | 0.00 | 0.00 | 67 | 991.1 |
| 20260505185014 | 62 | 29 | 6.1 | 7.0 | 0.00 | 0.00 | 0.00 | 67 | 991.2 |
| 20260505184813 | 62 | 22 | 7.0 | 7.8 | 0.00 | 0.00 | 0.00 | 66 | 991.1 |
| 20260505184614 | 62 | 26 | 7.0 | 7.8 | 0.00 | 0.00 | 0.00 | 66 | 991.1 |
| 20260505184413 | 62 | 29 | 6.1 | 7.0 | 0.00 | 0.00 | 0.00 | 66 | 991.2 |
| 20260505184213 | 62 | 32 | 5.2 | 7.8 | 0.00 | 0.00 | 0.00 | 66 | 991.2 |
| 20260505184013 | 62 | 35 | 4.3 | 5.2 | 0.00 | 0.00 | 0.00 | 66 | 991.2 |
| 20260505183813 | 62 | 39 | 4.3 | 5.2 | 0.00 | 0.00 | 0.00 | 66 | 991.1 |
| 20260505183614 | 62 | 41 | 3.5 | 5.2 | 0.00 | 0.00 | 0.00 | 66 | 991.1 |
| 20260505183413 | 62 | 33 | 4.3 | 6.1 | 0.00 | 0.00 | 0.00 | 66 | 991.1 |
| 20260505183213 | 63 | 31 | 4.3 | 6.1 | 0.00 | 0.00 | 0.00 | 66 | 991.0 |
| 20260505183013 | 63 | 32 | 4.3 | 6.1 | 0.00 | 0.00 | 0.00 | 66 | 991.0 |
| 20260505182813 | 63 | 33 | 4.3 | 5.2 | 0.00 | 0.00 | 0.00 | 66 | 991.0 |
| 20260505182612 | 63 | 38 | 4.3 | 5.2 | 0.00 | 0.00 | 0.00 | 65 | 991.0 |
| 20260505182413 | 63 | 49 | 3.5 | 5.2 | 0.00 | 0.00 | 0.00 | 65 | 990.9 |
| 20260505182213 | 63 | 48 | 4.3 | 6.1 | 0.00 | 0.00 | 0.00 | 65 | 990.9 |
| 20260505182013 | 63 | 48 | 4.3 | 5.2 | 0.00 | 0.00 | 0.00 | 65 | 990.9 |
| 20260505181813 | 63 | 49 | 4.3 | 6.1 | 0.00 | 0.00 | 0.00 | 65 | 990.8 |
| 20260505181611 | 63 | 54 | 4.3 | 7.0 | 0.00 | 0.00 | 0.00 | 65 | 990.8 |
| 20260505181412 | 63 | 53 | 4.3 | 6.1 | 0.00 | 0.00 | 0.00 | 65 | 990.8 |
| 20260505181212 | 63 | 50 | 5.2 | 7.0 | 0.00 | 0.00 | 0.00 | 65 | 990.7 |
| 20260505181012 | 63 | 55 | 5.2 | 7.0 | 0.00 | 0.00 | 0.00 | 65 | 990.7 |
| 20260505180812 | 63 | 63 | 5.2 | 7.0 | 0.00 | 0.00 | 0.00 | 65 | 990.7 |
| 20260505180611 | 63 | 54 | 5.2 | 7.8 | 0.00 | 0.00 | 0.00 | 65 | 990.7 |
| 20260505180412 | 63 | 48 | 5.2 | 7.0 | 0.00 | 0.00 | 0.00 | 65 | 990.7 |
| 20260505180212 | 64 | 37 | 5.2 | 7.8 | 0.00 | 0.00 | 0.00 | 65 | 990.7 |
| 20260505180012 | 64 | 35 | 6.1 | 7.8 | 0.00 | 0.00 | 0.00 | 65 | 990.7 |
| 20260505175812 | 64 | 48 | 5.2 | 7.8 | 0.00 | 0.00 | 0.00 | 65 | 990.7 |
| 20260505175611 | 64 | 72 | 5.2 | 7.0 | 0.00 | 0.00 | 0.00 | 65 | 990.7 |
| 20260505175412 | 64 | 72 | 6.1 | 8.7 | 0.00 | 0.00 | 0.00 | 65 | 990.7 |
| 20260505175212 | 64 | 70 | 4.3 | 7.0 | 0.00 | 0.00 | 0.00 | 65 | 990.7 |
| 20260505175012 | 64 | 70 | 6.1 | 8.7 | 0.00 | 0.00 | 0.00 | 65 | 990.6 |
| 20260505174812 | 64 | 70 | 7.0 | 8.7 | 0.00 | 0.00 | 0.00 | 65 | 990.6 |
| 20260505174610 | 64 | 67 | 6.1 | 7.8 | 0.00 | 0.00 | 0.00 | 65 | 990.6 |
| 20260505174411 | 64 | 65 | 6.1 | 7.0 | 0.00 | 0.00 | 0.00 | 65 | 990.6 |
| 20260505174211 | 64 | 58 | 5.2 | 7.0 | 0.00 | 0.00 | 0.00 | 65 | 990.5 |
| 20260505174011 | 64 | 57 | 5.2 | 7.0 | 0.00 | 0.00 | 0.00 | 65 | 990.5 |
| 20260505173811 | 65 | 63 | 5.2 | 6.1 | 0.00 | 0.00 | 0.00 | 65 | 990.5 |
| 20260505173610 | 65 | 67 | 5.2 | 7.0 | 0.00 | 0.00 | 0.00 | 64 | 990.5 |
| 20260505173411 | 65 | 71 | 5.2 | 6.1 | 0.00 | 0.00 | 0.00 | 64 | 990.4 |
| 20260505173211 | 65 | 70 | 6.1 | 8.7 | 0.00 | 0.00 | 0.00 | 64 | 990.4 |
| 20260505173011 | 65 | 63 | 6.1 | 7.0 | 0.00 | 0.00 | 0.00 | 64 | 990.4 |
| 20260505172811 | 65 | 56 | 7.0 | 7.8 | 0.00 | 0.00 | 0.00 | 64 | 990.4 |
| 20260505172610 | 65 | 57 | 7.0 | 8.7 | 0.00 | 0.00 | 0.00 | 64 | 990.4 |
| 20260505172411 | 65 | 56 | 6.1 | 9.6 | 0.00 | 0.00 | 0.00 | 64 | 990.4 |
| 20260505172211 | 65 | 60 | 5.2 | 6.1 | 0.00 | 0.00 | 0.00 | 64 | 990.4 |
| 20260505172011 | 65 | 66 | 5.2 | 7.8 | 0.00 | 0.00 | 0.00 | 64 | 990.4 |
| 20260505171810 | 65 | 63 | 7.0 | 9.6 | 0.00 | 0.00 | 0.00 | 64 | 990.5 |
| 20260505171402 | 65 | 60 | 7.0 | 9.6 | 0.00 | 0.00 | 0.00 | 64 | 990.5 |
| 20260505171202 | 65 | 57 | 7.0 | 10.4 | 0.00 | 0.00 | 0.00 | 64 | 990.5 |
| 20260505171002 | 65 | 45 | 6.1 | 7.8 | 0.00 | 0.00 | 0.00 | 64 | 990.5 |
| 20260505170802 | 66 | 49 | 7.0 | 7.8 | 0.00 | 0.00 | 0.00 | 64 | 990.5 |
| 20260505170602 | 66 | 54 | 5.2 | 7.0 | 0.00 | 0.00 | 0.00 | 64 | 990.5 |
| 20260505170402 | 66 | 57 | 6.1 | 7.8 | 0.00 | 0.00 | 0.00 | 64 | 990.5 |
| 20260505170202 | 66 | 59 | 7.0 | 8.7 | 0.00 | 0.00 | 0.00 | 64 | 990.4 |
| 20260505170002 | 66 | 50 | 6.1 | 8.7 | 0.00 | 0.00 | 0.00 | 64 | 990.4 |
| 20260505165802 | 66 | 55 | 6.1 | 9.6 | 0.00 | 0.00 | 0.00 | 64 | 990.5 |
| 20260505165602 | 66 | 51 | 7.0 | 9.6 | 0.00 | 0.00 | 0.00 | 64 | 990.5 |
| 20260505165402 | 66 | 49 | 5.2 | 7.0 | 0.00 | 0.00 | 0.00 | 64 | 990.4 |
| 20260505165202 | 66 | 59 | 6.1 | 8.7 | 0.00 | 0.00 | 0.00 | 63 | 990.4 |
| 20260505165002 | 66 | 57 | 7.8 | 12.2 | 0.00 | 0.00 | 0.00 | 63 | 990.4 |
| 20260505164802 | 66 | 59 | 7.8 | 12.2 | 0.00 | 0.00 | 0.00 | 63 | 990.4 |
| 20260505164602 | 66 | 56 | 6.1 | 9.6 | 0.00 | 0.00 | 0.00 | 63 | 990.4 |
| 20260505164401 | 66 | 51 | 6.1 | 7.8 | 0.00 | 0.00 | 0.00 | 63 | 990.4 |
| 20260505164201 | 66 | 45 | 6.1 | 7.8 | 0.00 | 0.00 | 0.00 | 63 | 990.4 |
| 20260505164001 | 66 | 49 | 7.0 | 10.4 | 0.00 | 0.00 | 0.00 | 63 | 990.4 |
| 20260505163801 | 66 | 55 | 7.0 | 10.4 | 0.00 | 0.00 | 0.00 | 63 | 990.4 |
| 20260505163601 | 66 | 63 | 7.0 | 10.4 | 0.00 | 0.00 | 0.00 | 63 | 990.2 |
| 20260505163401 | 66 | 66 | 5.2 | 8.7 | 0.00 | 0.00 | 0.00 | 63 | 990.2 |
| 20260505163201 | 66 | 67 | 5.2 | 7.8 | 0.00 | 0.00 | 0.00 | 63 | 990.2 |
| 20260505163001 | 66 | 66 | 6.1 | 7.8 | 0.00 | 0.00 | 0.00 | 63 | 990.1 |
| 20260505162801 | 66 | 65 | 5.2 | 7.8 | 0.00 | 0.00 | 0.00 | 63 | 990.1 |
| 20260505162601 | 66 | 68 | 7.0 | 8.7 | 0.00 | 0.00 | 0.00 | 63 | 990.2 |
| 20260505162401 | 66 | 67 | 7.0 | 10.4 | 0.00 | 0.00 | 0.00 | 63 | 990.2 |
| 20260505162201 | 66 | 63 | 7.0 | 11.3 | 0.00 | 0.00 | 0.00 | 63 | 990.3 |
| 20260505162001 | 66 | 57 | 7.0 | 7.8 | 0.00 | 0.00 | 0.00 | 63 | 990.3 |
| 20260505161801 | 66 | 56 | 7.0 | 8.7 | 0.00 | 0.00 | 0.00 | 63 | 990.3 |
| 20260505161601 | 66 | 51 | 5.2 | 7.8 | 0.00 | 0.00 | 0.00 | 63 | 990.4 |
| 20260505161401 | 66 | 58 | 7.0 | 8.7 | 0.00 | 0.00 | 0.00 | 63 | 990.4 |
| 20260505161200 | 67 | 58 | 7.0 | 10.4 | 0.00 | 0.00 | 0.00 | 62 | 990.4 |
| 20260505161000 | 67 | 55 | 7.0 | 10.4 | 0.00 | 0.00 | 0.00 | 62 | 990.4 |
| 20260505160800 | 67 | 58 | 7.8 | 10.4 | 0.00 | 0.00 | 0.00 | 62 | 990.4 |
| 20260505160601 | 67 | 53 | 7.8 | 10.4 | 0.00 | 0.00 | 0.00 | 62 | 990.3 |
| 20260505160400 | 67 | 56 | 7.8 | 11.3 | 0.00 | 0.00 | 0.00 | 62 | 990.3 |
| 20260505160200 | 67 | 61 | 7.0 | 8.7 | 0.00 | 0.00 | 0.00 | 62 | 990.4 |
| 20260505153359 | 68 | 49 | 8.7 | 10.4 | 0.00 | 0.00 | 0.00 | 62 | 990.3 |
| 20260505153159 | 68 | 60 | 7.0 | 8.7 | 0.00 | 0.00 | 0.00 | 62 | 990.3 |
| 20260505152959 | 68 | 67 | 7.0 | 10.4 | 0.00 | 0.00 | 0.00 | 62 | 990.3 |
| 20260505152759 | 68 | 53 | 7.8 | 10.4 | 0.00 | 0.00 | 0.00 | 62 | 990.4 |
| 20260505152558 | 68 | 47 | 7.8 | 10.4 | 0.00 | 0.00 | 0.00 | 62 | 990.5 |
| 20260505152359 | 68 | 47 | 7.8 | 10.4 | 0.00 | 0.00 | 0.00 | 62 | 990.5 |
| 20260505152159 | 68 | 43 | 7.8 | 9.6 | 0.00 | 0.00 | 0.00 | 62 | 990.6 |
| 20260505151959 | 68 | 47 | 7.8 | 10.4 | 0.00 | 0.00 | 0.00 | 62 | 990.6 |
| 20260505151759 | 68 | 46 | 7.0 | 9.6 | 0.00 | 0.00 | 0.00 | 62 | 990.7 |
| 20260505151558 | 68 | 47 | 7.0 | 9.6 | 0.00 | 0.00 | 0.00 | 62 | 990.6 |
| 20260505151359 | 68 | 47 | 7.0 | 8.7 | 0.00 | 0.00 | 0.00 | 62 | 990.6 |
| 20260505151159 | 68 | 40 | 7.0 | 8.7 | 0.00 | 0.00 | 0.00 | 62 | 990.6 |
| 20260505150958 | 68 | 40 | 7.0 | 8.7 | 0.00 | 0.00 | 0.00 | 62 | 990.6 |
| 20260505150758 | 68 | 47 | 6.1 | 7.8 | 0.00 | 0.00 | 0.00 | 62 | 990.7 |
| 20260505150557 | 68 | 56 | 6.1 | 7.0 | 0.00 | 0.00 | 0.00 | 62 | 990.7 |
| 20260505150358 | 68 | 61 | 7.0 | 8.7 | 0.00 | 0.00 | 0.00 | 62 | 990.7 |
| 20260505150158 | 68 | 57 | 7.0 | 8.7 | 0.00 | 0.00 | 0.00 | 62 | 990.8 |